星链-30770 (STARLINK-30770 )

导读

STARLINK-30770是美国于2023年10月22日发射的星链卫星,隶属于SpaceX公司的星链星座项目。星链计划旨在构建全球卫星互联网星座,为全球偏远地区、海洋等网络覆盖薄弱区域提供低延迟、高速率的宽带互联网服务,该卫星是星链大规模组网进程中的组成单元,助力星座服务覆盖能力持续拓展。

Basic Information
目录编号:
58132
目录名称:
STARLINK-30770
国际标识:
2023-162Q
轨道中心:
EARTH
卫星名称:
星链-30770
卫星全名:
星链-30770 (STARLINK-30770 )
卫星状态:
在轨 (已飞行1055 天)
发射日期:
2023-10-22 UTC
国别 :
美国 (US)
星等 :
--
This satellite is enrolled in the Space Conjunction Data Service (SCDS) and the current flight risk assessment level is: No High Risk
Orbit Information
数据来源 国际轨道数据 AOE轨道数据
星历时间 2026-09-11T10:36:15+0800
15小时前
查看轨道信息
2026-09-05T11:00:00+0800
6天前
查看轨道信息
半长轴 6861.187km 6861.2km
偏心率 0.0000867 0.0000821
轨道倾角 43.001° 43.001°
近地点辐角 269.346° 265.000°
升交点赤经 165.396° 199.193°
平近点角 90.729° 271.472°
近地点 482.455km 482.499km
远地点 483.645km 483.627km
周期 94.267分钟 94.267分钟
每日圈数 15.275798 15.275756
Detailed Information
固有亮度:
5
最大亮度:
0.3
卫星平台:
Starlink v2.0 mini
覆盖范围:
全球
运营商:
太空探索技术公司
运营商所在国:
美国
制造商(研发单位):
太空探索技术公司
制造商所在国:
美国
使用方式:
暂无
Satellite Introduction
星链(Starlink)计划是由太空探索技术公司(SpaceX)提出的一个巨型低轨卫星互联网星座项目,计划在2019年至2024年间在太空搭建由约1.2万颗卫星组成的“星链”网络,其中1584颗将部署在地球上空550千米处的近地轨道,并从2020年开始工作。该卫星仍在工作。
2D Orbit Map
3D Orbit Map
Orbit Altitude Analysis Chart
Orbit Inclination Analysis Chart
Orbit Comprehensive Analysis Chart
View Comprehensive Chart
Miss Distance Evolution Trend with All Objects
Collision Probability Evolution Trend with All Objects